GW0378 Weather Reports


time (UTC)temp
F
wind
direction
speed
knots
gust
knots
rain 1hr
in
rain 24hr
in
rain mn
in
humidity
%
barometer
mb
20260903195531 62 90 0.9 2.6 0.02 0.03 0.03 76 1011.9
20260903195026 60 217 3.5 3.5 0.09 0.03 0.03 78 1012.1
20260903194521 58 249 2.6 7.8 0.07 0.02 0.02 73 1012.0
20260903194016 59 274 2.6 7.8 0.02 0.01 0.01 75 1012.4
20260903193513 61 276 2.6 4.3 0.02 0.01 0.01 66 1012.4
20260903193007 62 280 3.5 3.5 0.00 0.00 0.00 63 1012.3
20260903192459 62 18 0.9 2.6 0.00 0.00 0.00 64 1012.1
20260903191959 62 252 2.6 4.3 0.00 0.00 0.00 62 1012.1
20260903191454 63 298 2.6 5.2 0.00 0.00 0.00 61 1012.1
20260903190949 63 275 5.2 5.2 0.00 0.00 0.00 64 1012.1
20260903190448 63 273 2.6 4.3 0.00 0.00 0.00 65 1012.1
20260903185943 63 0 2.6 4.3 0.00 0.00 0.00 65 1012.0
20260903185439 62 5 1.7 5.2 0.00 0.00 0.00 64 1012.1
20260903184939 62 90 1.7 3.5 0.00 0.00 0.00 67 1012.4
20260903184436 61 270 0.9 3.5 0.00 0.00 0.00 69 1012.4
20260903183930 61 302 2.6 2.6 0.00 0.00 0.00 70 1012.6
20260903183425 60 285 2.6 2.6 0.00 0.00 0.00 71 1012.5
20260903182924 61 33 1.7 1.7 0.00 0.00 0.00 74 1012.5
20260903182423 60 131 1.7 1.7 0.00 0.00 0.00 72 1012.7
20260903181918 60 342 0.9 3.5 0.00 0.00 0.00 76 1012.6
20260903181413 60 307 1.7 4.3 0.00 0.00 0.00 77 1012.5
20260903180912 59 307 1.7 2.6 0.02 0.00 0.00 77 1012.6
20260903180407 58 270 0.0 2.6 0.00 0.00 0.00 74 1012.9
20260903175907 58 248 1.7 3.5 0.00 0.00 0.00 74 1012.9
20260903175401 59 328 2.6 3.5 0.00 0.00 0.00 74 1013.0
20260903174855 59 309 1.7 2.6 0.00 0.00 0.00 73 1012.9
20260903174350 59 279 1.7 2.6 0.00 0.00 0.00 75 1013.0
20260903173844 60 257 0.0 0.9 0.00 0.00 0.00 73 1013.0
20260903173340 59 47 2.6 2.6 0.00 0.00 0.00 75 1013.1
20260903172836 59 57 0.0 3.5 0.00 0.00 0.00 77 1012.9
20260903172330 57 172 0.0 1.7 0.00 0.00 0.00 79 1013.0
20260903171826 57 215 0.0 2.6 0.00 0.00 0.00 81 1013.0
20260903171321 55 83 2.6 2.6 0.00 0.00 0.00 82 1012.9
20260903170820 54 29 0.0 1.7 0.00 0.00 0.00 84 1013.0
20260903170316 54 330 1.7 1.7 0.00 0.00 0.00 83 1013.1
20260903165814 54 26 0.0 4.3 0.00 0.00 0.00 84 1013.1
20260903165308 54 282 0.9 3.5 0.00 0.00 0.00 84 1013.1
20260903164803 54 270 0.0 1.7 0.00 0.00 0.00 84 1013.2
20260903164259 54 270 0.0 2.6 0.00 0.00 0.00 85 1012.9
20260903163757 54 283 1.7 4.3 0.00 0.00 0.00 85 1012.7
20260903163254 55 327 1.7 2.6 0.00 0.00 0.00 85 1012.7
20260903162752 54 262 0.0 3.5 0.00 0.00 0.00 85 1012.6
20260903162246 55 305 2.6 6.1 0.00 0.00 0.00 83 1012.5
20260903161742 56 303 1.7 3.5 0.00 0.00 0.00 83 1012.5
20260903161237 56 270 1.7 3.5 0.00 0.00 0.00 83 1012.5
20260903160733 54 72 1.7 3.5 0.00 0.00 0.00 85 1012.4
20260903160231 54 270 0.0 2.6 0.00 0.00 0.00 85 1012.3
20260903155730 54 66 0.0 2.6 0.00 0.00 0.00 86 1012.4
20260903155225 54 293 2.6 3.5 0.00 0.00 0.00 86 1012.3
20260903154720 54 84 2.6 2.6 0.00 0.00 0.00 86 1012.5
20260903154216 52 342 0.9 2.6 0.00 0.00 0.00 88 1012.6
20260903153712 52 345 0.9 2.6 0.00 0.00 0.00 89 1012.5
20260903153208 51 114 0.0 0.9 0.00 0.00 0.00 90 1012.8
20260903152704 51 319 3.5 3.5 0.00 0.00 0.00 92 1012.8
20260903152200 50 165 0.0 1.7 0.00 0.00 0.00 93 1012.5
20260903151700 50 240 1.7 2.6 0.00 0.00 0.00 94 1012.6
20260903151155 50 274 2.6 3.5 0.00 0.00 0.00 93 1012.7
20260903150655 50 270 0.9 2.6 0.00 0.00 0.00 94 1012.6
20260903150150 49 279 0.0 1.7 0.00 0.00 0.00 94 1012.6
20260903145649 49 270 0.0 3.5 0.00 0.00 0.00 94 1012.5
20260903145145 49 264 1.7 3.5 0.00 0.00 0.00 94 1012.8
20260903144643 50 228 1.7 3.5 0.00 0.00 0.00 93 1012.4
20260903144140 50 346 2.6 2.6 0.00 0.00 0.00 94 1012.1
20260903143636 49 74 0.0 1.7 0.00 0.00 0.00 94 1012.4
20260903143131 49 337 0.9 1.7 0.00 0.00 0.00 94 1012.4
20260903142627 49 279 0.0 2.6 0.00 0.00 0.00 94 1012.1
20260903142123 49 60 0.9 1.7 0.00 0.00 0.00 95 1012.3
20260903141619 49 18 0.0 2.6 0.00 0.00 0.00 95 1012.1
20260903141113 48 77 0.9 2.6 0.00 0.00 0.00 95 1012.1
20260903140610 49 328 0.9 2.6 0.00 0.00 0.00 94 1012.0
20260903140105 49 235 1.7 1.7 0.00 0.00 0.00 94 1012.0
20260903135601 49 65 1.7 2.6 0.00 0.00 0.00 94 1011.8
20260903135101 49 173 0.0 2.6 0.00 0.00 0.00 94 1012.0
20260903134559 49 102 1.7 4.3 0.00 0.00 0.00 93 1011.9
20260903134055 49 90 0.9 2.6 0.00 0.00 0.00 94 1011.7
20260903133553 48 102 0.9 5.2 0.00 0.00 0.00 94 1011.5
20260903133049 48 60 2.6 2.6 0.00 0.00 0.00 95 1011.6
20260903132543 48 42 2.6 5.2 0.00 0.00 0.00 95 1011.5
20260903132038 48 98 0.9 2.6 0.00 0.00 0.00 95 1011.7
20260903131532 48 99 0.0 1.7 0.00 0.00 0.00 95 1011.6
20260903131032 48 105 0.0 2.6 0.00 0.00 0.00 95 1011.4
20260903130526 48 23 0.0 0.9 0.00 0.00 0.00 96 1011.5
20260903130021 48 41 1.7 3.5 0.00 0.00 0.00 96 1011.5
20260903125519 48 81 1.7 3.5 0.00 0.00 0.00 96 1011.1
20260903125015 48 90 0.9 1.7 0.00 0.00 0.00 96 1011.3
20260903124509 48 90 0.0 1.7 0.00 0.00 0.00 96 1011.4
20260903124008 48 291 0.0 1.7 0.00 0.00 0.00 96 1011.1
20260903123504 48 81 0.0 1.7 0.00 0.00 0.00 96 1011.0
20260903123002 48 120 0.9 3.5 0.00 0.00 0.00 95 1011.1
20260903122456 48 120 0.0 0.9 0.00 0.00 0.00 95 1011.0
20260903121956 48 154 1.7 1.7 0.00 0.00 0.00 95 1010.9
20260903121450 48 191 0.9 2.6 0.00 0.00 0.00 95 1011.0
20260903120947 48 23 1.7 2.6 0.00 0.00 0.00 95 1010.9
20260903120445 48 49 2.6 2.6 0.00 0.00 0.00 96 1010.8
20260903115944 48 106 3.5 5.2 0.00 0.00 0.00 96 1011.0
20260903115443 48 30 1.7 2.6 0.00 0.00 0.00 96 1011.0
20260903114938 48 29 0.9 2.6 0.00 0.00 0.00 96 1010.9
20260903114434 48 74 1.7 2.6 0.00 0.00 0.00 96 1010.9
20260903113929 48 112 1.7 2.6 0.00 0.00 0.00 96 1011.4
20260903113425 48 15 0.0 1.7 0.00 0.00 0.00 96 1011.1
20260903112921 47 90 1.7 1.7 0.00 0.00 0.00 96 1010.9
20260903112416 48 286 0.0 1.7 0.00 0.00 0.00 96 1011.1
20260903111915 47 48 1.7 1.7 0.00 0.00 0.00 96 1011.1
20260903111415 47 90 1.7 1.7 0.00 0.00 0.00 96 1011.3
20260903110911 47 98 0.0 2.6 0.00 0.00 0.00 96 1011.1
20260903110407 47 99 0.0 1.7 0.00 0.00 0.00 96 1010.8
20260903105901 47 96 0.9 1.7 0.00 0.00 0.00 96 1010.8
20260903105357 47 81 0.0 1.7 0.00 0.00 0.00 96 1010.9
20260903104856 47 192 0.0 1.7 0.00 0.00 0.00 95 1010.7
20260903104350 47 255 0.0 0.9 0.00 0.00 0.00 96 1011.0
20260903103848 47 120 0.0 0.9 0.00 0.00 0.00 95 1010.9
20260903103344 47 105 0.0 1.7 0.00 0.00 0.00 96 1011.0
20260903102838 47 117 0.9 5.2 0.00 0.00 0.00 96 1010.9
20260903102333 47 94 1.7 4.3 0.00 0.00 0.00 96 1010.7
20260903101833 47 79 2.6 4.3 0.00 0.00 0.00 96 1010.9
20260903101328 47 99 3.5 4.3 0.00 0.00 0.00 96 1010.9
20260903100823 47 98 2.6 4.3 0.00 0.00 0.00 96 1011.1
20260903100317 47 105 2.6 3.5 0.00 0.00 0.00 96 1011.0
20260903095815 47 40 0.9 1.7 0.00 0.00 0.00 96 1010.9
20260903095309 47 99 0.0 1.7 0.00 0.00 0.00 96 1011.1
20260903094805 47 83 0.9 1.7 0.00 0.00 0.00 96 1011.1
20260903094259 47 45 1.7 1.7 0.00 0.00 0.00 96 1011.0
20260903093755 47 57 0.9 1.7 0.00 0.00 0.00 96 1010.9
20260903093250 47 94 1.7 1.7 0.00 0.00 0.00 95 1011.0
20260903092750 47 95 1.7 1.7 0.00 0.00 0.00 95 1011.0
20260903092245 47 56 1.7 1.7 0.00 0.00 0.00 95 1011.1
20260903091743 47 45 1.7 2.6 0.00 0.00 0.00 96 1010.8
20260903091232 47 85 1.7 1.7 0.00 0.00 0.00 95 1010.9
20260903090728 47 98 0.0 0.9 0.00 0.00 0.00 95 1010.9
20260903090227 47 90 0.9 1.7 0.00 0.00 0.00 95 1011.3
20260903085726 47 203 0.0 1.7 0.00 0.00 0.00 95 1010.8
20260903085221 47 261 1.7 2.6 0.00 0.00 0.00 95 1011.0
20260903084718 47 258 1.7 2.6 0.00 0.00 0.00 95 1011.1
20260903084214 47 90 0.0 0.0 0.00 0.00 0.00 95 1010.9
20260903083710 47 111 0.9 2.6 0.00 0.00 0.00 95 1010.6
20260903083209 47 103 1.7 2.6 0.00 0.00 0.00 95 1010.8
20260903082703 47 103 0.9 2.6 0.00 0.00 0.00 95 1010.7
20260903082159 47 113 1.7 3.5 0.00 0.00 0.00 95 1010.7
20260903081653 47 86 2.6 5.2 0.00 0.00 0.00 95 1010.6
20260903081150 47 123 2.6 2.6 0.00 0.00 0.00 95 1010.6
20260903080645 47 108 2.6 4.3 0.00 0.00 0.00 95 1010.6
20260903080143 47 103 0.0 1.7 0.00 0.00 0.00 95 1010.8
20260903075642 47 90 2.6 2.6 0.00 0.00 0.00 95 1010.4
20260903075137 47 94 1.7 2.6 0.00 0.00 0.00 94 1010.6
20260903074636 47 69 2.6 2.6 0.00 0.00 0.00 94 1010.0
20260903074132 48 65 1.7 1.7 0.00 0.00 0.00 94 1010.3
20260903073627 48 73 1.7 1.7 0.00 0.00 0.00 94 1010.4
20260903073122 48 99 2.6 3.5 0.00 0.00 0.00 93 1010.4
20260903072618 48 114 0.0 2.6 0.00 0.00 0.00 93 1010.1
20260903072114 48 139 1.7 2.6 0.00 0.00 0.00 93 1010.5
20260903071611 48 99 0.0 6.1 0.00 0.00 0.00 93 1010.3
20260903071111 48 72 5.2 6.1 0.00 0.00 0.00 93 1010.4
20260903070605 48 48 1.7 3.5 0.00 0.00 0.00 93 1009.9
20260903065600 48 99 2.6 3.5 0.00 0.00 0.00 93 1010.4
20260903065055 48 123 2.6 4.3 0.00 0.00 0.00 93 1010.4
20260903064554 48 152 1.7 3.5 0.00 0.00 0.00 93 1010.0
20260903064050 48 104 4.3 7.8 0.00 0.00 0.00 92 1009.9
20260903063545 49 121 3.5 7.8 0.00 0.00 0.00 93 1010.1
20260903063041 48 123 1.7 7.0 0.00 0.00 0.00 93 1010.5
20260903062536 48 114 0.0 1.7 0.00 0.00 0.00 94 1010.0
20260903062031 48 92 5.2 5.2 0.00 0.00 0.00 94 1010.0
20260903061527 48 98 2.6 3.5 0.00 0.00 0.00 93 1010.0
20260903061026 48 99 0.0 1.7 0.00 0.00 0.00 93 1010.3
20260903060525 48 111 0.0 4.3 0.00 0.00 0.00 93 1010.3
20260903060021 48 131 0.9 1.7 0.00 0.29 0.29 93 1010.3
20260903055518 48 81 0.0 0.9 0.00 0.29 0.29 93 1010.3
20260903055017 48 146 1.7 3.5 0.00 0.29 0.29 92 1010.4
20260903054513 49 129 2.6 5.2 0.00 0.29 0.29 92 1010.4
20260903054008 49 108 3.5 3.5 0.00 0.29 0.29 92 1010.0
20260903053503 49 105 2.6 3.5 0.00 0.29 0.29 92 1010.3
20260903052959 49 99 3.5 3.5 0.00 0.29 0.29 91 1010.5
20260903052455 50 90 1.7 6.1 0.00 0.29 0.29 91 1010.3
20260903051950 50 90 1.7 2.6 0.00 0.29 0.29 91 1010.6
20260903051445 50 114 0.9 2.6 0.00 0.29 0.29 91 1010.5
20260903050941 50 90 2.6 4.3 0.00 0.29 0.29 90 1010.3
20260903050440 50 90 0.0 2.6 0.00 0.29 0.29 90 1010.5
20260903045934 50 105 2.6 4.3 0.00 0.29 0.29 90 1010.6
20260903045430 50 105 5.2 5.2 0.00 0.29 0.29 91 1010.7
20260903044927 50 81 0.0 6.1 0.00 0.29 0.29 91 1010.6
20260903044427 50 129 5.2 7.8 0.00 0.29 0.29 90 1010.7
20260903043923 50 112 6.1 8.7 0.00 0.29 0.29 90 1010.6
20260903043419 50 106 4.3 10.4 0.00 0.29 0.29 90 1010.8
20260903042917 51 100 2.6 7.0 0.00 0.29 0.29 89 1010.5
20260903042413 51 103 5.2 8.7 0.00 0.29 0.29 89 1010.8
20260903041908 51 90 8.7 11.3 0.00 0.29 0.29 89 1010.6
20260903041404 51 112 2.6 7.8 0.00 0.29 0.29 89 1010.6
20260903040900 51 118 5.2 7.0 0.00 0.29 0.29 90 1010.7
20260903040359 51 121 3.5 6.1 0.00 0.29 0.29 89 1010.9
20260903035854 51 102 4.3 7.0 0.00 0.29 0.29 90 1010.5
20260903035350 51 102 4.3 7.8 0.00 0.29 0.29 90 1010.7
20260903034840 51 115 4.3 9.6 0.00 0.29 0.29 90 1010.9
20260903034335 51 109 3.5 6.1 0.00 0.29 0.29 90 1010.6
20260903033830 51 96 5.2 7.8 0.00 0.29 0.29 89 1010.7
20260903033325 52 82 2.6 6.1 0.00 0.29 0.29 88 1010.8
20260903032824 52 96 2.6 4.3 0.00 0.29 0.29 88 1010.8
20260903032320 52 94 1.7 4.3 0.00 0.29 0.29 88 1010.4
20260903031816 52 99 4.3 4.3 0.00 0.29 0.29 88 1010.6
20260903031315 52 87 3.5 4.3 0.00 0.29 0.29 88 1010.7
20260903030811 52 124 3.5 5.2 0.00 0.29 0.29 88 1010.6
20260903030307 53 66 1.7 5.2 0.00 0.29 0.29 88 1010.5
20260903025802 53 74 4.3 5.2 0.00 0.29 0.29 87 1010.7
20260903025258 53 98 1.7 6.1 0.00 0.29 0.29 87 1010.6
20260903024752 53 34 2.6 6.1 0.00 0.29 0.29 87 1010.6
20260903024251 53 93 2.6 6.1 0.00 0.29 0.29 87 1010.5
20260903023747 54 106 3.5 6.1 0.00 0.29 0.29 87 1010.5
20260903023243 54 107 4.3 6.1 0.00 0.29 0.29 86 1010.6
20260903022743 55 107 3.5 7.8 0.00 0.29 0.29 85 1010.5
20260903022242 55 113 6.1 7.8 0.00 0.29 0.29 85 1010.7
20260903021741 55 106 3.5 4.3 0.00 0.29 0.29 83 1010.4
20260903021237 55 105 3.5 6.1 0.00 0.29 0.29 82 1010.3
20260903020737 56 109 2.6 4.3 0.00 0.29 0.29 81 1010.7
20260903020231 56 98 3.5 4.3 0.00 0.29 0.29 80 1010.3
20260903015726 57 83 6.1 7.0 0.00 0.29 0.29 80 1010.5
20260903015222 57 107 2.6 5.2 0.00 0.29 0.29 78 1010.5
20260903014717 58 105 2.6 5.2 0.00 0.29 0.29 76 1010.4
20260903014217 59 142 1.7 6.1 0.00 0.29 0.29 76 1010.5
20260903013712 59 90 0.0 3.5 0.00 0.29 0.29 75 1010.6
20260903013211 60 124 0.0 1.7 0.00 0.29 0.29 71 1010.7
20260903012709 61 151 0.0 1.7 0.00 0.29 0.29 71 1010.5
20260903012204 60 180 0.0 0.0 0.00 0.29 0.29 72 1010.7
20260903011659 60 15 0.0 0.0 0.00 0.29 0.29 70 1010.9
20260903011158 59 15 0.0 0.0 0.00 0.29 0.29 72 1010.5
20260903010653 59 15 0.0 0.9 0.00 0.29 0.29 72 1010.9
20260903010153 60 261 0.0 0.0 0.00 0.29 0.29 69 1010.7
20260903005647 61 261 0.0 0.0 0.00 0.29 0.29 67 1010.7
20260903005142 61 270 0.0 1.7 0.00 0.29 0.29 66 1010.8
20260903004637 61 325 0.0 2.6 0.00 0.29 0.29 67 1011.0
20260903004132 60 172 0.0 0.0 0.00 0.29 0.29 70 1011.0
20260903003628 61 66 0.0 0.9 0.00 0.29 0.29 68 1011.0
20260903003123 62 297 0.0 2.6 0.00 0.29 0.29 67 1011.1
20260903002618 62 301 1.7 1.7 0.00 0.29 0.29 66 1011.3
20260903002112 61 283 1.7 2.6 0.00 0.29 0.29 68 1011.5
20260903001607 62 0 0.0 1.7 0.00 0.29 0.29 68 1011.3
20260903001107 62 305 1.7 3.5 0.00 0.29 0.29 66 1011.3
20260903000602 61 74 0.0 1.7 0.00 0.29 0.29 69 1011.6
20260903000055 62 330 1.7 2.6 0.00 0.29 0.29 70 1011.5
20260902235555 61 326 1.7 3.5 0.00 0.29 0.29 71 1011.6
20260902235050 60 270 0.9 3.5 0.00 0.29 0.29 73 1011.7
20260902234544 59 257 3.5 3.5 0.00 0.29 0.29 76 1011.8
20260902234043 59 276 1.7 3.5 0.00 0.29 0.29 75 1011.7
20260902233538 59 26 1.7 2.6 0.00 0.29 0.29 75 1011.7
20260902233032 59 284 2.6 2.6 0.00 0.29 0.29 74 1011.5
20260902232532 58 0 0.0 1.7 0.00 0.29 0.29 74 1011.5
20260902232026 59 98 0.9 2.6 0.00 0.29 0.29 75 1011.9
20260902231521 60 246 0.0 0.9 0.00 0.29 0.29 75 1011.9
20260902231021 58 26 0.0 0.0 0.00 0.29 0.29 81 1011.9
20260902230515 57 299 1.7 2.6 0.00 0.29 0.29 84 1011.9
20260902230014 57 352 0.0 1.7 0.00 0.29 0.29 85 1012.0
20260902225510 57 99 0.0 1.7 0.00 0.29 0.29 85 1011.8
20260902225004 56 0 0.9 1.7 0.00 0.29 0.29 86 1011.9
20260902224503 55 278 0.0 1.7 0.00 0.29 0.29 86 1012.3
20260902223959 55 9 1.7 2.6 0.00 0.29 0.29 87 1012.3
20260902223455 55 24 1.7 2.6 0.00 0.29 0.29 88 1012.3
20260902222954 55 90 1.7 1.7 0.00 0.29 0.29 88 1012.4
20260902222453 54 14 0.0 1.7 0.00 0.29 0.29 89 1012.3
20260902221952 55 65 1.7 2.6 0.00 0.29 0.29 90 1012.6
20260902221452 54 54 0.0 0.9 0.00 0.29 0.29 91 1012.7
20260902220947 53 15 0.0 0.9 0.00 0.29 0.29 92 1012.6
20260902220441 53 15 0.0 0.9 0.00 0.29 0.29 93 1012.8
20260902215936 53 15 0.9 1.7 0.00 0.29 0.29 93 1012.4
20260902215432 53 71 0.9 3.5 0.00 0.29 0.29 94 1012.6
20260902214928 53 233 1.7 3.5 0.00 0.29 0.29 94 1012.8
20260902214426 53 307 1.7 2.6 0.00 0.29 0.29 94 1012.7
20260902213921 52 203 0.9 2.6 0.00 0.29 0.29 94 1012.8
20260902213417 52 262 2.6 5.2 0.00 0.29 0.29 94 1012.5
20260902212916 52 192 2.6 8.7 0.00 0.29 0.29 93 1012.6
20260902212412 51 234 3.5 4.3 0.00 0.29 0.29 94 1011.7
20260902211908 51 173 0.0 2.6 0.00 0.29 0.29 94 1011.3
20260902211403 51 180 1.7 2.6 0.00 0.29 0.29 93 1010.5
20260902210853 52 8 0.0 0.9 0.00 0.29 0.29 93 1011.1
20260902210352 51 209 2.6 3.5 0.00 0.29 0.29 93 1011.4
20260902205850 51 53 1.7 3.5 0.00 0.29 0.29 93 1011.5
20260902205340 52 117 1.7 4.3 0.00 0.29 0.29 93 1011.9
20260902204835 52 41 0.0 2.6 0.00 0.29 0.29 93 1012.3
20260902204330 51 233 0.0 2.6 0.02 0.29 0.29 93 1012.4
20260902203826 51 188 0.0 1.7 0.02 0.28 0.28 93 1012.7
20260902203321 51 24 1.7 4.3 0.07 0.28 0.28 93 1013.2
20260902202820 51 66 0.9 2.6 0.09 0.28 0.28 93 1013.9
20260902202317 51 0 0.9 1.7 0.19 0.27 0.27 92 1014.5
20260902201813 51 47 2.6 3.5 0.21 0.26 0.26 92 1014.4
20260902201312 51 29 0.0 3.5 0.14 0.24 0.24 92 1014.8
20260902200808 52 61 2.6 3.5 0.17 0.22 0.22 91 1014.7
20260902200303 52 103 0.9 1.7 0.26 0.22 0.22 89 1014.8
20260902195758 52 270 1.7 2.6 0.21 0.19 0.19 87 1014.7